User: anonymous   Login
Location: Unspecified
(0.0000°N, 0.0000°E)
Time: 19:07:54
(UTC+00:00)
Language:

STARLINK-3273 - Orbit

View from above orbital plane
View from above orbital plane
View from above satellite
View from above satellite

Ground track
Ground track

The orbit is defined by the following mean orbital elements,

1 50191U          26145.08764589 +.00000000 +00000-0 +39061-4 0 00007
2 50191  53.2137 276.1558 0001129  89.8021 270.3100 15.08840996    07
Epoch (UTC): 25 May 2026 02:06:12
Eccentricity: 0.0001129
inclination: 53.2137°
perigee height: 539 km
apogee height: 541 km
right ascension of ascending node: 276.1558°
argument of perigee: 89.8021°
revolutions per day: 15.08840996
mean anomaly at epoch: 270.3100°

The dashed part of the orbit path shows where the satellite is in the earth's shadow,  

DLR